Freeland, MI

12:14 AM EST on February 07, 2016 (GMT -0500)
MBS International

Weather History for KMBS - September, 2013

Change the Weather History Date:

Thursday, September 12, 2013

  Actual Average Record
Temperature  
Mean Temperature 66 °F 63 °F  
Max Temperature 77 °F 74 °F 91 °F (2005)
Min Temperature 54 °F 52 °F 46 °F (1999)
Degree Days  
Heating Degree Days 0    
Month to date heating degree days 12  
Since 1 July heating degree days 33  
Cooling Degree Days 1    
Month to date cooling degree days 43  
Year to date cooling degree days 650  
Growing Degree Days 18 (Base 50)    
Moisture  
Dew Point 54 °F    
Average Humidity 68    
Maximum Humidity 93    
Minimum Humidity 43    
Precipitation  
Precipitation 0.00 in 0.13 in 0.36 in (2006)
Month to date precipitation 0.08 1.51  
Year to date precipitation 24.96 22.03  
Snow  
Snow 0.00 in - - ()
Month to date snowfall 0.0  
Since 1 July snowfall 0.0  
Since 1 September snowfall 0.0  
Snow Depth 0.00 in    
Sea Level Pressure  
Sea Level Pressure 29.93 in    
Wind  
Wind Speed 13 mph (NW)    
Max Wind Speed 25 mph    
Max Gust Speed 30 mph    
Visibility 10 miles    
Events      
T = Trace of Precipitation, MM = Missing Value Source: NWS Daily Summary

Daily Weather History Graph

Daily Weather History Graph

Search for Another Location

Airport or City:

Trip Planner

Search our weather history database for the weather conditions in past years. The results will help you decide how hot, cold, wet, or windy it might be!

Date:

Astronomy

Sep. 12, 2013 Rise Set
Actual Time 7:12 AM EDT 7:51 PM EDT
Civil Twilight 6:43 AM EDT 8:20 PM EDT
Nautical Twilight 6:09 AM EDT 8:54 PM EDT
Astronomical Twilight 5:34 AM EDT 9:29 PM EDT
Moon 2:51 PM EDT (9/12) No Moon Set
Length of Visible Light 13h 36m
Length of Day
12h 38m
Waxing Crescent, 50% of the Moon is Illuminated
Sep 12
Waxing Crescent
Sep 12
First Quarter
Sep 19
Full
Sep 26
Last Quarter
Oct 4
New

Hourly Weather History & Observations

Time (EDT) Temp. Dew Point Humidity Pressure Visibility Wind Dir Wind Speed Gust Speed Precip Events Conditions
12:53 AM 66.0 °F 63.0 °F 90% 29.93 in 10.0 mi WSW 9.2 mph - N/A   Clear
1:53 AM 66.0 °F 63.0 °F 90% 29.91 in 10.0 mi SW 9.2 mph - N/A   Clear
2:53 AM 64.9 °F 63.0 °F 93% 29.90 in 10.0 mi SW 6.9 mph - N/A   Clear
3:53 AM 64.0 °F 62.1 °F 93% 29.89 in 10.0 mi West 6.9 mph - N/A   Clear
4:53 AM 63.0 °F 61.0 °F 93% 29.89 in 10.0 mi WSW 6.9 mph - N/A   Clear
5:53 AM 64.0 °F 62.1 °F 93% 29.89 in 10.0 mi West 8.1 mph - N/A   Clear
6:53 AM 64.9 °F 62.1 °F 90% 29.91 in 10.0 mi WNW 6.9 mph - N/A   Mostly Cloudy
7:53 AM 64.0 °F 60.1 °F 87% 29.93 in 10.0 mi NW 8.1 mph - N/A   Scattered Clouds
8:53 AM 66.0 °F 61.0 °F 84% 29.93 in 10.0 mi NW 6.9 mph - N/A   Clear
9:53 AM 69.1 °F 60.1 °F 73% 29.94 in 10.0 mi NW 8.1 mph - N/A   Partly Cloudy
10:53 AM 71.1 °F 55.9 °F 59% 29.94 in 10.0 mi NW 15.0 mph - N/A   Clear
11:53 AM 73.0 °F 57.0 °F 57% 29.94 in 10.0 mi NW 10.4 mph - N/A   Partly Cloudy
1:53 PM 75.9 °F 54.0 °F 46% 29.92 in 10.0 mi WNW 15.0 mph 20.7 mph N/A   Mostly Cloudy
2:53 PM 77.0 °F 53.1 °F 43% 29.91 in 10.0 mi NW 15.0 mph - N/A   Scattered Clouds
3:53 PM 73.9 °F 51.1 °F 45% 29.90 in 10.0 mi NW 17.3 mph 24.2 mph N/A   Mostly Cloudy
4:53 PM 73.0 °F 50.0 °F 44% 29.90 in 10.0 mi NNW 18.4 mph 29.9 mph N/A   Partly Cloudy
5:53 PM 68.0 °F 46.9 °F 47% 29.91 in 10.0 mi NNW 20.7 mph 25.3 mph N/A   Clear
6:53 PM 64.9 °F 45.0 °F 48% 29.96 in 10.0 mi NNW 19.6 mph 25.3 mph N/A   Overcast
7:53 PM 63.0 °F 45.0 °F 52% 29.96 in 10.0 mi North 19.6 mph 26.5 mph N/A   Partly Cloudy
8:53 PM 62.1 °F 44.1 °F 52% 29.99 in 10.0 mi North 16.1 mph 24.2 mph N/A   Overcast
9:53 PM 60.1 °F 41.0 °F 49% 30.01 in 10.0 mi NNW 16.1 mph 25.3 mph N/A   Overcast
10:53 PM 59.0 °F 42.1 °F 53% 30.00 in 10.0 mi North 17.3 mph - N/A   Overcast
11:53 PM 57.9 °F 41.0 °F 53% 30.00 in 10.0 mi NNW 18.4 mph 25.3 mph N/A   Overcast